TimeEST,TemperatureF,Dew PointF,Humidity,Sea Level PressureIn,VisibilityMPH,Wind Direction,Wind SpeedMPH,Gust SpeedMPH,PrecipitationIn,Events,Conditions,WindDirDegrees,DateUTC
12:53 AM,28.0,21.9,78,30.35,10.0,SSE,6.9,-,N/A,,Clear,150,2012-12-13 05:53:00
1:53 AM,28.0,21.9,78,30.39,10.0,South,4.6,-,N/A,,Clear,170,2012-12-13 06:53:00
2:53 AM,28.0,21.9,78,30.40,10.0,SSE,5.8,-,N/A,,Clear,160,2012-12-13 07:53:00
3:53 AM,28.0,21.0,75,30.41,10.0,South,5.8,-,N/A,,Clear,170,2012-12-13 08:53:00
4:53 AM,28.0,21.0,75,30.40,10.0,South,5.8,-,N/A,,Clear,170,2012-12-13 09:53:00
5:53 AM,27.0,21.0,78,30.40,10.0,SSE,8.1,-,N/A,,Clear,160,2012-12-13 10:53:00
6:53 AM,27.0,21.0,78,30.41,10.0,South,5.8,-,N/A,,Clear,180,2012-12-13 11:53:00
7:53 AM,27.0,21.0,78,30.42,10.0,South,6.9,-,N/A,,Clear,170,2012-12-13 12:53:00
8:53 AM,30.0,21.9,72,30.43,10.0,South,5.8,-,N/A,,Clear,170,2012-12-13 13:53:00
9:53 AM,34.0,25.0,70,30.41,10.0,South,8.1,-,N/A,,Clear,190,2012-12-13 14:53:00
10:53 AM,37.0,26.1,65,30.40,10.0,South,10.4,-,N/A,,Clear,180,2012-12-13 15:53:00
11:53 AM,39.9,26.1,58,30.38,10.0,South,9.2,-,N/A,,Clear,190,2012-12-13 16:53:00
12:53 PM,42.1,25.0,51,30.35,10.0,SSW,8.1,-,N/A,,Clear,200,2012-12-13 17:53:00
1:53 PM,44.1,26.1,49,30.34,10.0,SSW,6.9,-,N/A,,Clear,210,2012-12-13 18:53:00
2:53 PM,45.0,28.0,52,30.32,10.0,South,6.9,-,N/A,,Clear,190,2012-12-13 19:53:00
3:53 PM,44.1,26.1,49,30.30,10.0,South,9.2,-,N/A,,Clear,190,2012-12-13 20:53:00
4:53 PM,42.1,25.0,51,30.29,10.0,South,5.8,-,N/A,,Clear,190,2012-12-13 21:53:00
6:53 PM,35.1,24.1,64,30.29,10.0,South,5.8,-,N/A,,Clear,180,2012-12-13 23:53:00
8:53 PM,35.1,25.0,67,30.26,10.0,South,9.2,-,N/A,,Clear,170,2012-12-14 01:53:00
9:53 PM,35.1,25.0,67,30.25,10.0,South,10.4,-,N/A,,Clear,170,2012-12-14 02:53:00
10:53 PM,35.1,25.0,67,30.24,10.0,South,10.4,-,N/A,,Clear,180,2012-12-14 03:53:00
11:53 PM,36.0,25.0,64,30.24,10.0,South,11.5,-,N/A,,Clear,190,2012-12-14 04:53:00